User: anonymous   Login
Location: Reeth
(54.3881°N, 1.9432°W)
Time: 15:37:05
(UTC+01:00)
Language:

Hubble Space Telescope - Orbit

View from above orbital plane
View from above orbital plane
View from above satellite
View from above satellite

Ground track
Ground track

The orbit data is extracted from the following two-line orbital elements,

1 20580U 90037B   20262.86133120  .00000389  00000-0  12666-4 0  9995
2 20580  28.4701  61.8367 0002786  20.4275 110.3962 15.09432351470188
Epoch (UTC): 18 September 2020 20:40:19
Eccentricity: 0.0002786
inclination: 28.4701°
perigee height: 536 km
apogee height: 540 km
right ascension of ascending node: 61.8367°
argument of perigee: 20.4275°
revolutions per day: 15.09432351
mean anomaly at epoch: 110.3962°
orbit number at epoch: 47018

The dashed part of the orbit path shows where the satellite is in the earth's shadow,  

DLR